Weather History for St. Augustine, FL

Change the Weather History Date:

Saturday, December 28, 2013

  Actual Average Record
Temperature  
Mean Temperature 66 °F -  
Max Temperature 70 °F 61 °F 82 °F (1987)
Min Temperature 62 °F 44 °F 25 °F (1977)
Growing Degree Days 16 (Base 50)    
Moisture  
Dew Point 64 °F    
Average Humidity 90    
Maximum Humidity 100    
Minimum Humidity 83    
Precipitation  
Precipitation 0.03 in - - ()
Sea Level Pressure  
Sea Level Pressure 30.17 in    
Wind  
Wind Speed 8 mph (East)    
Max Wind Speed 13 mph    
Max Gust Speed -    
Visibility 6 miles    
Events Rain    
Averages and records for this station are not official NWS values.
T = Trace of Precipitation, MM = Missing Value Source: NWS Daily Summary

Daily Weather History Graph

Daily Weather History Graph

Search for Another Location

Airport:

Trip Planner

Search our weather history database for the weather conditions in past years. The results will help you decide how hot, cold, wet, or windy it might be!

Date:

Astronomy

Dec. 28, 2013 Rise Set
Actual Time 7:20 AM EST 5:34 PM EST
Civil Twilight 6:53 AM EST 6:00 PM EST
Nautical Twilight 6:23 AM EST 6:30 PM EST
Astronomical Twilight 5:54 AM EST 6:59 PM EST
Moon 3:05 AM EST (12/28) 2:15 PM EST (12/28)
Length of Visible Light 11h 06m
Length of Day
10h 14m
Waning Crescent, 19% of the Moon is Illuminated
Dec 28
Waning Crescent
Jan 1
New
Jan 7
First Quarter
Jan 15
Full
Jan 24
Last Quarter

Hourly Weather History & Observations

Time (EST) Temp. Dew Point Humidity Pressure Visibility Wind Dir Wind Speed Gust Speed Precip Events Conditions
12:58 AM 62.1 °F 57.9 °F 86% 30.29 in 10.0 mi NNE 9.2 mph - N/A   Overcast
1:58 AM 63.0 °F 57.9 °F 84% 30.27 in 10.0 mi NNE 10.4 mph - N/A   Overcast
2:58 AM 63.0 °F 59.0 °F 87% 30.26 in 10.0 mi NNE 9.2 mph - N/A   Overcast
3:58 AM 63.0 °F 59.0 °F 87% 30.25 in 10.0 mi North 12.7 mph - N/A   Overcast
4:58 AM 63.0 °F 59.0 °F 87% 30.24 in 8.0 mi North 10.4 mph - N/A   Overcast
5:58 AM 63.0 °F 60.1 °F 90% 30.24 in 10.0 mi North 10.4 mph - N/A   Overcast
6:58 AM 64.0 °F 61.0 °F 90% 30.24 in 10.0 mi NNE 9.2 mph - N/A   Overcast
7:58 AM 64.0 °F 62.1 °F 93% 30.24 in 6.0 mi NNE 9.2 mph - N/A   Overcast
8:43 AM 64.4 °F 62.6 °F 94% 30.25 in 2.0 mi NNE 6.9 mph - N/A   Overcast
8:58 AM 64.0 °F 62.1 °F 93% 30.26 in 2.0 mi SE 5.8 mph - 0.00 in Rain Light Rain
9:03 AM 64.4 °F 62.6 °F 94% 30.26 in 1.2 mi Variable 3.5 mph - 0.01 in Rain Rain
9:51 AM 64.4 °F 64.4 °F 100% 30.27 in 2.0 mi NNE 3.5 mph - 0.03 in   Overcast
9:58 AM 66.0 °F 64.9 °F 96% 30.27 in 2.0 mi NE 4.6 mph - 0.03 in   Overcast
10:58 AM 66.9 °F 66.0 °F 97% 30.26 in 2.5 mi ENE 5.8 mph - N/A   Overcast
11:58 AM 68.0 °F 66.0 °F 93% 30.23 in 3.0 mi East 11.5 mph - N/A   Overcast
12:27 PM 68.0 °F 66.2 °F 94% 30.20 in 5.0 mi East 12.7 mph - N/A   Mostly Cloudy
12:58 PM 68.0 °F 64.9 °F 90% 30.18 in 5.0 mi East 10.4 mph - N/A   Mostly Cloudy
1:58 PM 68.0 °F 66.0 °F 93% 30.14 in 5.0 mi East 5.8 mph - N/A   Overcast
2:02 PM 69.8 °F 66.2 °F 88% 30.14 in 10.0 mi East 5.8 mph - N/A   Mostly Cloudy
2:36 PM 69.8 °F 64.4 °F 83% 30.12 in 5.0 mi East 5.8 mph - N/A   Mostly Cloudy
2:58 PM 69.1 °F 64.9 °F 87% 30.12 in 5.0 mi East 9.2 mph - N/A   Mostly Cloudy
3:02 PM 69.8 °F 64.4 °F 83% 30.12 in 10.0 mi East 8.1 mph - N/A   Clear
3:16 PM 68.0 °F 64.4 °F 88% 30.12 in 4.0 mi East 4.6 mph - N/A   Mostly Cloudy
3:58 PM 66.9 °F 64.9 °F 93% 30.12 in 4.0 mi East 4.6 mph - N/A   Mostly Cloudy
4:02 PM 66.2 °F 64.4 °F 94% 30.12 in 9.0 mi East 3.5 mph - N/A   Mostly Cloudy
4:06 PM 66.2 °F 64.4 °F 94% 30.12 in 4.0 mi East 3.5 mph - N/A   Mostly Cloudy
4:57 PM 68.0 °F 64.9 °F 90% 30.12 in 4.0 mi ESE 3.5 mph - N/A   Overcast
5:49 PM 66.2 °F 64.4 °F 94% 30.11 in 4.0 mi SSE 5.8 mph - N/A   Mostly Cloudy
5:54 PM 68.0 °F 64.4 °F 88% 30.11 in 4.0 mi SSE 4.6 mph - N/A   Mostly Cloudy
5:58 PM 68.0 °F 64.9 °F 90% 30.11 in 4.0 mi SSE 5.8 mph - N/A   Mostly Cloudy
6:58 PM 68.0 °F 64.9 °F 90% 30.11 in 5.0 mi SE 8.1 mph - N/A   Overcast
7:58 PM 66.0 °F 63.0 °F 90% 30.10 in 5.0 mi SE 8.1 mph - N/A   Partly Cloudy
8:58 PM 66.9 °F 64.0 °F 90% 30.09 in 10.0 mi SSE 10.4 mph - N/A   Clear
9:58 PM 68.0 °F 64.0 °F 87% 30.06 in 10.0 mi SSE 12.7 mph - N/A   Clear
10:58 PM 69.1 °F 66.0 °F 90% 30.05 in 10.0 mi SSE 12.7 mph - N/A   Mostly Cloudy
11:58 PM 70.0 °F 66.0 °F 87% 30.03 in 10.0 mi SSE 12.7 mph - N/A   Scattered Clouds